Content
SEND FEEDBACK

Daily
Averages
Monthly
Summary
United States of America

GRASS VALLEY, MONTANA


Home > North America > United States > Montana
Elevation: 3166 feet     Latitude: 46 53N     Longitude: 114 02W

WEATHER
 
SELECT A DAY
Number of Records: 207,372;   Date Range: 1/1/95 - 10/21/14
 
SHARE

PRINT THIS DATA

[ ← Previous Day ]
WEATHER ALMANAC - FEBRUARY 13, 2013
[ Next Day → ]
[ °C ]   °F
Weather ElementAverageHighLow
Temperature37.2 °F39.9 °F (11:53 am)33.8 °F (7:34 pm)
Dewpoint31.3 °F33.8 °F (1:48 pm)28.9 °F (3:53 pm)
Humidity79.4 %93 % (7:34 pm)65 % (3:53 pm)
Barometer30.19 in30.30 in (11:53 pm)30.04 in (6:53 am)
Wind Speed7.7 mph18.4 mph (3:53 pm)
Wind Gust23 mph (3:53 pm)
Weather ElementAverage
Visibility9.8 mi
Wind DirectionWSW (251.6 °)

Weather ElementTotal
Precipitation0.01 in
Heating Degree Days28.2 (Base 65)
Averaged from 31 records on February 13, 2013
WEATHER CONDITIONS BREAKOUT
WIND DIRECTION BREAKOUT
WEATHER BY HOUR - FEBRUARY 13, 2013
[ °C ]   °F
Local TimeTemperatureDewpointHumidityBarometerVisibilityWind DirectionWind SpeedGust SpeedPrecipitationEventsConditions
1:53 AM37.0 °F30.9 °F79 %30.16 in10.0 miESE (110°)6.9 mphOvercast
2:53 AM39.0 °F30.0 °F70 %30.14 in10.0 miESE (120°)3.5 mphOvercast
3:53 AM37.9 °F30.9 °F76 %30.12 in10.0 miEast (100°)4.6 mphOvercast
4:53 AM37.0 °F30.9 °F79 %30.12 in10.0 miEast (100°)4.6 mphOvercast
5:53 AM39.0 °F30.9 °F73 %30.10 in10.0 miSSW (200°)9.2 mphOvercast
6:53 AM39.2 °F30.2 °F70 %30.04 in10.0 miCalmOvercast
7:53 AM37.0 °F30.9 °F79 %30.12 in10.0 miEast (80°)4.6 mph0.00 inRainLight Rain
8:53 AM37.9 °F32.0 °F79 %30.15 in10.0 miNW (320°)4.6 mph0.00 inRainLight Rain
9:53 AM37.9 °F33.1 °F83 %30.17 in10.0 miCalm0.00 inOvercast
10:53 AM37.0 °F33.1 °F86 %30.19 in10.0 miCalm0.00 inRainLight Rain
11:53 AM39.9 °F32.0 °F73 %30.21 in10.0 miNNW (330°)9.2 mph0.00 inOvercast
12:53 PM39.9 °F32.0 °F73 %30.20 in10.0 miNNW (330°)12.7 mph0.00 inOvercast
1:48 PM39.2 °F33.8 °F81 %30.14 in10.0 miWNW (300°)9.2 mphMostly Cloudy
1:53 PM39.9 °F32.0 °F73 %30.20 in10.0 miNW (310°)9.2 mphMostly Cloudy
2:04 PM39.2 °F32.0 °F75 %30.14 in10.0 miNW (320°)5.8 mphMostly Cloudy
2:14 PM39.2 °F32.0 °F75 %30.14 in10.0 miNW (310°)6.9 mphMostly Cloudy
2:53 PM39.9 °F30.9 °F70 %30.19 in10.0 miWNW (290°)16.1 mph19.6 mphOvercast
3:53 PM39.9 °F28.9 °F65 %30.20 in10.0 miNW (320°)18.4 mph23.0 mphOvercast
4:53 PM39.0 °F30.0 °F70 %30.22 in10.0 miNorth (350°)6.9 mphOvercast
5:53 PM37.9 °F28.9 °F70 %30.23 in10.0 miNW (320°)8.1 mphOvercast
6:44 PM35.6 °F30.2 °F81 %30.18 in9.0 miWNW (290°)11.5 mph0.00 inSnowLight Snow
6:53 PM35.1 °F32.0 °F89 %30.25 in9.0 miWNW (300°)11.5 mph0.00 inRainLight Rain
7:34 PM33.8 °F32.0 °F93 %30.18 in10.0 miWNW (290°)4.6 mph0.00 inOvercast
7:53 PM35.1 °F32.0 °F89 %30.26 in10.0 miNorth (350°)5.8 mph0.00 inMostly Cloudy
8:29 PM35.6 °F32.0 °F87 %30.19 in10.0 miNorth (350°)6.9 mph0.00 inOvercast
8:42 PM35.6 °F32.0 °F87 %30.19 in8.0 miNNW (340°)11.5 mph0.00 inSnowLight Snow
8:53 PM34.0 °F32.0 °F92 %30.27 in9.0 miNorth (350°)10.4 mph0.01 inSnowLight Snow
9:05 PM33.8 °F32.0 °F93 %30.20 in10.0 miNNW (340°)10.4 mph0.00 inOvercast
9:53 PM35.1 °F30.9 °F85 %30.27 in9.0 miNNW (330°)10.4 mph0.00 inSnowLight Snow
10:53 PM34.0 °F30.0 °F85 %30.29 in10.0 miNW (320°)6.9 mph0.00 inClear
11:53 PM34.0 °F28.9 °F82 %30.30 in10.0 miNNW (330°)6.9 mphClear
Hourly data recorded from KMSO, located miles away from Grass Valley, Montana







STORIES FROM OUR PARTNERS